GFSSGP_925_temp_276.txt.gz
Temp
30 28 26 31 32 23 22 24 24 35 34 35 35 35 32 29 26 24 28 28 26 23 22 21 21 21 21 21 20 20 20 20 20 20 20 21 21 21 21 20 20 20 20 20 20 20 19 19 19
29 31 33 34 33 32 23 25 25 34 34 35 35 35 31 29 30 29 30 28 26 24 22 21 21 21 21 21 20 20 20 19 20 20 20 20 20 20 20 20 20 20 19 19 19 19 20 20 21
29 31 34 34 34 26 25 25 29 34 35 35 34 33 32 28 30 30 29 28 27 24 22 21 20 21 21 20 20 20 20 20 20 20 20 20 20 20 20 20 20 19 19 19 19 19 20 20 20
32 35 35 34 35 33 25 22 29 35 35 36 34 31 30 29 29 29 29 28 26 25 21 20 20 21 20 20 20 20 20 20 20 20 19 19 19 20 20 20 19 19 19 20 20 20 20 20 20
33 35 34 35 37 34 35 28 34 34 35 36 35 30 30 29 29 29 28 28 27 24 21 20 20 20 19 19 20 19 19 19 20 20 20 20 20 20 20 20 19 19 19 19 19 20 20 20 20
34 36 34 35 36 36 36 38 37 37 36 35 33 31 30 29 29 29 29 29 27 24 22 20 20 20 20 19 18 20 20 20 20 20 20 20 20 20 20 19 19 19 19 19 19 19 19 20 20
33 35 35 37 36 36 38 39 37 36 36 36 35 30 30 30 30 30 31 30 28 25 23 21 20 19 19 19 20 20 20 20 20 20 20 20 20 20 20 20 20 20 20 20 20 20 20 20 20
35 35 35 37 37 33 36 38 38 37 36 37 36 31 29 31 31 31 31 30 29 27 25 23 21 20 19 20 20 20 20 20 20 21 21 21 20 20 20 20 20 20 20 20 20 20 20 20 20
36 34 34 36 38 32 35 38 38 38 36 37 36 33 32 31 31 31 31 31 30 28 27 25 23 22 21 20 21 21 21 20 20 20 21 21 21 20 21 21 20 20 20 20 20 20 20 20 20
35 34 35 38 39 38 38 38 37 36 36 35 34 33 32 32 32 32 31 31 31 30 28 25 23 23 23 23 22 22 21 20 19 19 20 20 20 20 20 20 20 20 20 20 20 20 20 19 19
35 34 37 38 40 40 37 38 36 36 36 31 33 32 32 32 32 32 32 31 31 27 25 25 24 24 23 23 23 24 22 21 20 19 19 19 20 19 19 19 20 19 20 19 19 20 19 19 19
35 36 37 38 39 39 38 39 38 37 31 23 24 32 33 32 33 32 31 31 30 29 25 24 24 23 23 24 24 23 22 21 20 19 18 18 19 18 19 18 19 19 19 18 19 19 19 19 20
36 36 37 38 38 38 38 38 38 37 25 22 24 31 33 33 33 32 31 30 30 28 25 24 23 23 22 22 22 22 21 20 20 18 17 17 17 17 19 19 19 18 18 18 18 18 19 19 20
37 37 37 38 38 38 37 37 37 38 31 23 22 32 33 33 33 32 31 30 29 28 25 24 23 22 21 21 21 20 20 20 19 18 16 16 16 17 18 18 18 18 18 18 18 18 19 19 19
36 36 36 37 37 37 38 36 36 38 38 36 34 34 34 34 33 32 31 30 29 27 25 23 22 20 20 19 20 21 20 20 19 18 17 16 16 16 18 18 17 17 18 18 18 18 19 19 18
35 35 34 36 37 37 37 34 37 38 38 36 36 35 34 34 34 32 31 29 28 26 23 21 20 19 19 19 20 20 20 20 19 19 17 16 16 16 17 17 16 17 18 18 18 18 18 18 18
34 33 34 35 38 37 36 35 37 38 38 37 25 28 35 30 33 31 30 28 23 22 21 21 20 19 18 19 20 19 19 19 19 18 17 16 16 16 17 16 16 17 17 16 16 17 17 17 18
34 34 35 35 38 37 36 36 36 38 38 37 36 35 33 33 32 31 25 23 21 21 20 20 18 18 18 19 19 19 18 19 18 17 16 16 16 16 16 16 16 16 15 15 15 16 17 17 17
35 35 35 37 38 37 36 35 37 37 37 36 36 34 35 34 31 29 23 22 21 20 19 19 19 18 18 18 19 20 19 19 18 16 16 16 16 16 16 16 16 15 15 14 14 15 16 17 16
34 34 34 36 37 35 35 35 36 37 37 36 36 35 34 34 27 26 22 22 20 19 18 18 18 18 18 19 21 21 20 19 18 16 15 15 15 15 15 15 15 15 15 14 14 14 15 16 16
33 33 34 34 36 36 35 34 35 37 37 36 36 36 36 33 31 25 24 22 20 20 19 18 18 17 19 20 19 19 19 18 17 16 16 15 15 15 14 14 14 15 15 14 14 14 14 15 16
32 35 35 34 34 33 35 32 35 36 36 36 35 35 36 35 32 29 24 23 21 21 19 19 18 18 19 19 18 18 18 19 19 18 16 15 15 15 14 14 14 15 14 14 14 13 13 14 15
33 35 34 34 33 33 34 33 35 36 35 36 36 36 36 36 34 29 26 23 22 22 20 19 18 18 19 19 19 18 20 19 19 17 15 15 15 15 15 14 14 14 14 14 13 13 13 13 13
34 33 33 33 33 31 33 33 34 36 36 36 37 37 37 37 36 28 26 23 23 22 21 19 18 18 18 18 19 19 19 19 18 16 15 15 15 15 15 15 14 14 14 14 13 13 13 13 13
33 32 30 31 31 31 33 34 34 36 37 37 37 36 37 29 24 25 27 24 24 22 20 19 18 18 17 18 18 18 18 18 17 16 17 17 17 15 14 14 14 14 14 14 14 14 13 13 12
33 32 31 29 30 30 34 32 34 37 38 38 38 38 30 24 23 22 25 24 24 22 21 19 18 18 18 18 17 17 17 17 17 17 17 17 17 15 14 14 14 14 14 14 14 14 13 13 13
32 32 33 31 32 32 33 32 34 35 36 35 37 37 34 24 23 22 26 25 23 22 21 20 18 18 18 18 17 17 16 17 17 17 17 16 16 15 15 15 14 14 14 14 14 14 13 13 13
33 34 31 32 28 28 32 33 31 31 30 31 32 34 28 23 24 20 21 23 23 21 21 20 19 19 18 17 17 16 16 17 16 15 15 16 16 15 15 15 14 14 14 14 14 14 13 14 14
31 25 22 29 29 27 28 30 29 27 31 30 29 27 26 22 18 17 18 21 22 22 21 20 19 19 18 18 17 16 16 16 15 15 15 15 15 15 14 14 15 15 14 14 14 14 14 14 14
32 31 30 29 28 25 20 20 28 29 26 28 27 29 23 19 18 18 19 22 22 21 22 20 20 19 18 18 17 16 16 16 15 15 15 15 14 14 15 15 15 15 14 14 14 14 14 14 14

GFSSGP_925_temp_279.txt.gz
Temp
29 28 27 27 24 20 22 24 25 26 28 32 32 30 28 27 27 24 23 23 22 21 21 22 21 21 21 21 21 21 20 20 20 20 20 20 20 20 20 20 20 20 19 19 19 19 19 19 19
29 27 27 26 26 22 23 26 27 29 32 32 31 30 28 26 28 26 24 22 22 21 21 21 20 21 21 21 20 20 20 21 21 20 20 20 20 20 20 20 20 20 19 19 20 20 21 21 20
29 29 26 25 26 26 24 26 28 30 30 33 32 30 29 26 28 26 24 23 22 21 21 20 21 21 21 20 20 20 20 20 20 20 20 20 20 20 20 20 20 20 20 20 19 20 20 20 21
30 28 26 27 27 26 27 28 30 30 29 32 30 28 29 29 28 27 24 23 22 21 21 21 21 20 20 21 20 20 20 20 20 20 19 20 20 20 20 20 20 20 19 19 20 20 20 20 20
30 26 26 28 29 26 26 28 29 29 31 31 30 28 27 29 28 27 25 23 22 21 20 20 20 20 20 20 20 20 20 20 20 21 20 20 20 20 20 20 20 20 20 20 20 20 20 20 20
26 26 26 26 31 27 27 30 30 28 31 30 28 27 26 28 28 28 24 23 23 21 20 20 20 20 20 20 20 20 21 21 21 21 21 20 20 20 20 21 20 20 20 20 20 20 20 20 20
27 26 26 28 31 30 27 29 29 27 32 31 30 26 26 28 28 28 24 24 22 21 20 20 20 19 20 20 21 21 21 21 21 21 20 20 20 20 20 20 20 20 20 20 20 20 20 20 20
28 27 27 30 30 33 35 27 30 33 32 32 30 27 26 28 29 29 25 23 22 22 20 20 20 20 20 20 21 21 21 20 20 20 20 20 20 20 20 20 20 20 20 19 20 20 20 19 19
30 26 27 29 31 33 34 32 30 34 30 32 31 29 28 29 30 28 26 24 22 22 21 21 21 21 21 21 21 21 20 20 20 20 20 20 20 20 20 20 20 20 19 19 19 19 19 19 19
28 25 28 31 32 33 35 34 33 34 28 25 30 30 30 30 30 29 27 25 24 22 21 21 21 21 22 22 21 21 21 20 20 20 20 20 19 20 19 19 19 19 19 19 19 18 19 19 19
28 28 30 32 33 34 35 33 35 27 24 26 24 26 30 30 30 29 29 28 26 23 22 22 21 22 22 22 22 20 20 20 20 20 19 19 19 19 18 19 19 18 18 18 18 19 19 19 19
29 30 31 33 34 33 34 36 34 31 27 27 27 29 29 29 28 28 29 25 25 24 23 23 23 23 23 23 22 21 21 20 19 19 19 18 18 18 18 18 18 18 18 18 18 18 19 18 18
29 30 32 32 32 32 35 35 31 25 26 27 25 27 26 29 29 30 28 24 24 23 23 23 23 23 23 23 22 21 21 20 19 19 18 17 18 18 18 18 18 18 18 18 18 18 19 18 18
30 30 31 32 31 32 34 35 34 26 26 26 26 27 25 26 29 30 28 24 24 23 23 23 23 23 22 22 21 21 20 20 19 18 17 17 17 17 17 17 17 17 18 18 18 18 18 18 18
31 30 30 31 33 33 33 34 34 26 25 24 26 26 27 22 30 29 29 25 23 23 23 22 22 22 22 21 20 20 20 19 19 17 17 16 17 17 17 17 17 17 17 17 17 17 17 18 18
29 31 28 29 32 33 33 29 33 23 24 25 21 21 21 24 29 30 29 27 24 23 22 22 22 21 21 20 20 20 20 19 18 17 17 16 16 16 17 17 16 16 16 16 16 17 17 17 17
28 27 28 29 32 32 31 30 33 29 24 24 21 22 22 25 24 28 28 26 25 24 22 22 21 20 20 20 20 20 19 19 18 17 16 16 16 16 16 16 16 16 15 15 15 16 16 17 17
27 28 28 29 32 31 31 31 31 33 33 24 23 22 22 24 22 27 23 24 23 22 22 21 20 19 19 19 19 19 19 18 18 17 16 16 16 16 16 16 15 15 15 15 15 16 16 17 17
30 30 29 31 33 33 30 33 32 32 30 24 24 24 21 21 20 22 21 21 21 21 21 20 19 19 19 19 19 19 18 18 17 16 16 16 15 16 15 15 15 14 14 14 14 15 15 16 16
30 29 28 30 32 34 33 32 32 32 32 27 24 23 23 22 20 21 20 20 20 20 20 19 19 18 18 19 19 19 18 17 16 16 15 15 15 15 15 15 14 14 14 14 14 14 14 15 16
30 29 29 29 31 31 33 30 30 31 32 31 30 28 24 22 21 21 21 20 18 18 19 19 18 18 19 19 19 19 18 17 16 15 15 15 15 14 14 14 14 14 14 13 13 13 14 14 15
29 31 32 31 30 27 31 25 28 30 30 31 31 29 25 23 22 22 21 19 18 18 19 18 18 18 18 18 20 19 18 17 16 15 15 15 15 14 14 14 14 14 14 13 13 13 13 14 13
30 32 31 30 28 26 28 25 26 29 29 30 29 29 28 24 24 22 21 19 19 18 18 18 18 18 18 19 20 19 19 17 17 15 15 15 15 14 14 14 14 14 14 13 13 13 13 13 13
32 30 28 28 27 24 27 27 28 29 30 31 30 30 29 28 24 22 21 19 19 18 18 18 18 18 18 19 19 19 18 17 16 15 15 15 15 15 15 14 14 14 14 13 13 13 13 13 13
32 29 24 24 24 24 28 28 26 30 27 28 30 29 25 24 24 21 20 20 20 19 18 18 18 18 18 19 18 18 18 18 17 17 16 15 15 15 15 14 14 14 14 14 13 13 13 13 13
29 27 23 25 24 27 30 28 27 28 26 26 26 25 23 21 20 20 19 21 20 20 18 18 17 18 18 18 18 18 18 18 17 17 16 16 15 14 14 14 14 14 14 14 13 13 13 13 13
29 26 30 27 26 25 27 26 27 26 26 26 25 24 22 22 19 20 21 21 21 19 19 18 17 17 17 18 17 18 18 17 17 17 17 17 15 15 14 14 14 14 14 14 14 13 13 13 13
30 26 24 22 23 23 25 23 23 24 24 26 23 22 20 19 19 19 19 20 21 20 18 17 17 17 17 17 17 17 17 17 17 16 16 16 15 15 14 14 14 14 14 14 14 13 13 13 14
25 24 19 20 22 23 23 22 22 25 24 24 24 21 20 19 17 19 18 18 18 19 19 17 17 17 17 17 17 17 16 16 16 16 16 16 15 15 14 14 14 14 14 14 14 13 14 14 14
28 28 22 20 23 21 21 20 25 24 25 26 26 23 20 18 17 16 17 18 19 19 20 18 17 18 17 17 16 16 16 16 16 16 15 15 15 14 14 14 14 14 14 14 13 13 14 14 14

GFSSGP_925_temp_285.txt.gz
Temp
27 26 25 25 24 21 24 25 26 26 26 28 28 28 26 25 25 23 20 21 21 20 20 20 20 20 21 21 21 21 21 21 21 21 21 20 20 20 20 20 19 19 19 19 19 18 19 19 18
27 26 25 21 22 22 23 24 25 27 27 28 28 27 26 24 23 20 20 20 21 20 20 20 20 20 21 22 22 21 21 21 20 20 20 20 20 20 20 20 19 19 18 18 18 18 18 19 19
26 25 23 21 19 22 24 25 27 28 28 29 28 28 26 22 22 21 20 20 20 20 20 20 20 21 21 21 21 21 21 20 20 20 20 20 20 20 20 20 20 20 20 20 20 19 19 19 19
25 23 21 23 24 24 26 27 26 28 29 29 27 25 25 24 22 22 20 21 20 20 20 20 20 21 21 21 21 20 20 20 19 20 20 20 20 21 21 21 21 20 20 19 19 18 18 19 19
25 20 22 23 24 25 26 28 27 29 28 28 28 25 24 24 23 22 21 21 20 20 20 20 21 21 21 20 19 19 20 20 20 20 20 20 20 20 20 20 19 19 19 19 18 18 18 19 19
22 20 22 23 24 27 27 26 28 28 27 27 26 25 23 22 22 20 21 21 20 20 20 20 21 21 20 20 20 20 20 20 20 20 20 20 20 20 20 19 19 19 19 19 18 19 19 19 19
23 21 23 24 25 26 28 26 29 28 27 27 27 24 21 22 21 21 21 20 20 20 20 20 20 20 20 20 20 20 20 20 20 20 20 20 19 19 19 19 18 19 18 18 18 19 18 18 18
21 22 24 25 25 26 27 28 29 27 25 27 28 24 21 22 20 20 19 19 19 19 20 20 20 20 20 20 21 21 20 20 20 20 19 19 19 19 19 19 19 18 18 18 18 18 18 19 18
23 22 21 26 27 29 27 27 27 26 25 24 28 26 25 22 20 19 19 19 19 19 20 20 20 21 20 21 20 20 20 20 20 20 19 19 19 19 19 18 18 18 18 18 18 18 18 18 18
23 20 23 25 27 27 30 28 25 27 25 25 25 26 23 21 19 19 18 18 18 18 19 20 21 20 20 20 20 20 20 20 20 20 19 19 19 18 18 18 18 18 18 18 18 18 18 18 18
24 24 25 27 26 26 27 26 26 27 26 25 25 25 22 21 21 20 19 19 19 20 19 20 21 21 20 20 20 19 19 19 20 19 19 19 18 18 18 18 18 17 17 18 18 18 17 17 17
27 26 27 27 28 28 27 27 27 28 27 27 26 26 23 22 21 21 20 19 19 19 20 21 21 21 20 19 19 19 20 20 20 19 19 19 18 18 17 17 17 17 17 17 17 17 17 17 17
26 26 26 26 25 25 27 26 26 27 27 26 26 27 24 23 22 22 21 21 20 19 21 22 21 21 20 19 19 19 19 19 19 19 18 18 18 17 17 17 17 17 17 17 17 17 17 16 16
27 26 26 26 27 27 27 26 26 27 26 26 26 26 25 23 23 23 22 20 20 20 22 22 21 21 20 19 19 19 19 19 18 19 18 17 17 17 16 16 16 16 17 17 17 17 17 16 16
27 27 25 27 29 30 27 26 26 25 26 25 25 25 25 25 24 24 22 21 21 21 22 22 21 21 20 20 19 19 19 18 18 18 18 17 17 16 16 16 16 16 16 16 16 17 17 16 16
26 24 25 27 28 29 29 28 26 25 25 25 24 24 24 22 23 25 23 22 22 21 21 22 22 21 20 20 20 19 19 18 19 18 17 16 16 16 16 16 15 15 16 16 16 16 17 16 16
21 24 26 26 27 29 29 27 24 23 25 24 24 24 24 22 22 23 23 23 22 21 21 21 21 20 20 20 20 19 18 18 18 17 17 16 16 16 15 15 15 15 15 15 16 16 16 16 15
26 26 25 25 27 28 27 26 22 23 24 25 22 23 24 22 22 23 23 22 22 21 20 20 20 20 20 20 19 18 17 18 17 17 16 16 16 15 15 14 14 14 14 15 16 15 16 16 15
26 26 25 25 26 29 26 25 22 22 23 22 22 22 23 23 22 23 22 22 21 20 19 19 19 20 20 19 18 17 17 17 16 16 16 16 15 15 14 14 14 14 14 15 15 15 16 15 15
24 25 24 26 28 28 25 23 21 22 22 23 22 22 24 24 21 20 22 21 20 19 18 18 18 19 20 20 19 18 17 16 16 16 15 15 15 14 14 14 14 13 14 14 15 15 14 14 15
26 26 27 27 27 27 25 22 22 23 23 24 22 22 24 23 21 21 20 19 19 18 18 17 16 16 15 17 18 18 17 16 15 15 15 15 14 14 14 13 13 13 13 13 14 14 14 13 13
28 27 28 28 26 25 25 23 22 23 23 22 21 22 22 24 22 20 19 18 18 17 17 18 17 17 17 14 17 18 16 15 15 15 15 14 14 14 14 13 13 13 13 13 13 13 14 14 13
29 29 27 27 24 24 24 20 22 22 23 23 22 21 22 23 22 20 19 18 17 16 18 18 20 21 20 14 15 16 17 17 16 15 14 14 14 14 13 13 13 13 13 13 13 13 13 13 13
29 28 23 21 21 22 22 20 21 20 22 22 22 21 21 22 20 18 17 17 17 18 19 17 18 20 16 15 16 17 18 16 15 15 14 14 14 13 13 13 13 13 13 13 13 13 13 13 13
24 22 21 22 20 23 22 21 21 23 23 22 20 21 20 19 18 17 17 18 20 19 18 19 16 15 16 16 16 17 17 17 16 15 15 14 14 14 13 13 13 13 13 13 13 13 12 13 13
26 23 21 24 22 22 23 22 21 23 23 21 20 20 20 20 18 18 18 19 19 18 17 16 16 15 16 16 16 17 16 17 16 16 15 15 14 14 14 13 13 13 13 13 13 13 13 13 13
27 22 23 21 20 21 21 24 23 23 22 21 21 20 20 19 18 18 18 18 18 18 16 16 16 16 16 16 16 16 17 17 16 16 16 15 15 14 14 13 13 13 13 13 13 13 13 13 13
25 23 23 19 23 23 21 22 21 22 22 23 22 20 20 19 18 18 17 17 18 18 18 17 17 17 17 17 16 16 17 17 17 17 16 15 15 14 14 14 13 13 13 13 13 13 13 13 13
22 22 18 18 19 20 20 20 20 22 22 21 21 20 20 19 17 17 16 17 17 17 17 17 16 16 16 16 16 16 17 17 16 16 15 15 15 14 14 14 13 13 13 13 13 13 13 13 13
24 22 19 19 22 17 17 19 22 20 21 21 20 20 19 18 17 16 16 16 16 16 17 17 16 16 16 16 16 16 17 16 15 15 16 16 15 14 14 14 14 14 13 13 13 13 13 13 13

GFSSGP_925_temp_291.txt.gz
Temp
25 24 24 26 30 29 28 28 27 28 28 29 29 29 29 27 28 27 20 21 21 21 21 20 19 19 19 20 21 21 21 20 20 20 20 20 20 19 18 19 18 18 18 18 18 18 18 18 19
25 24 25 27 30 31 29 28 28 29 29 29 28 28 28 27 25 22 21 20 21 21 20 20 20 19 21 22 21 21 21 20 20 19 20 19 19 19 19 19 18 18 18 18 18 18 18 18 19
24 25 29 29 28 30 30 28 30 29 28 29 28 28 28 26 23 23 21 20 21 20 20 20 19 21 21 21 21 21 20 20 20 19 19 19 20 20 19 19 18 18 18 18 18 18 18 18 18
25 27 27 30 29 30 29 30 29 29 29 29 29 27 26 24 23 22 21 20 21 20 20 20 20 20 21 21 21 20 20 20 19 19 19 19 19 19 19 18 18 18 18 18 18 18 18 18 19
24 27 29 29 29 29 29 29 30 29 29 29 29 27 26 23 22 21 21 21 21 21 21 20 19 20 20 20 20 20 20 20 20 19 19 19 19 19 19 18 18 18 18 18 18 17 18 18 19
28 27 30 30 29 29 30 30 30 30 30 29 28 27 26 22 21 21 21 21 21 21 21 20 20 20 20 20 20 20 20 20 20 19 20 19 19 19 19 18 17 17 17 17 17 17 17 18 18
29 29 28 29 30 30 29 29 29 29 29 29 29 27 25 23 22 21 21 21 21 21 21 21 20 19 19 19 20 20 20 20 20 20 20 19 19 19 19 17 17 17 17 18 17 17 17 18 18
27 28 27 29 30 30 30 30 29 29 30 29 29 28 27 24 21 21 21 21 21 20 21 20 20 20 20 19 20 20 20 20 19 19 19 19 19 18 18 18 17 17 18 17 17 18 18 18 18
26 29 28 30 30 31 30 30 29 29 29 28 29 28 27 23 21 21 21 21 20 19 20 20 20 20 20 20 19 20 20 20 19 19 19 19 18 18 18 18 18 18 17 16 17 17 17 17 17
28 28 29 29 30 31 32 31 32 30 29 28 28 26 23 22 22 22 22 21 19 19 19 19 19 19 19 19 19 19 19 19 19 19 19 18 18 17 17 18 17 17 17 17 17 17 17 17 17
26 28 29 30 30 30 31 31 31 30 31 31 29 26 24 23 22 23 22 22 21 19 18 18 18 18 19 19 19 19 19 20 19 19 19 18 18 18 17 17 17 16 17 17 17 17 17 16 16
28 29 29 31 30 29 30 31 31 30 33 30 30 27 25 24 24 23 22 22 21 20 19 18 19 18 18 19 19 19 19 19 19 19 19 18 17 17 17 16 17 16 16 16 16 16 16 16 16
28 29 28 30 29 29 29 30 31 31 32 28 27 26 25 25 24 23 23 22 21 20 20 18 18 18 18 19 19 19 19 19 19 19 19 18 18 18 17 17 16 16 16 16 16 15 16 16 16
28 29 30 29 29 29 29 29 28 32 32 28 26 26 26 26 25 24 23 22 21 21 20 19 18 18 18 18 18 19 19 19 19 18 18 17 17 17 17 16 16 16 16 16 15 15 16 16 16
28 29 30 29 30 30 29 29 29 31 29 29 27 26 26 26 25 24 24 23 22 21 20 19 18 18 17 17 18 19 19 18 18 18 18 17 17 17 16 15 15 16 16 16 16 15 15 16 16
28 28 31 30 30 28 29 33 29 27 28 29 29 26 25 26 25 25 24 23 22 21 20 19 19 18 17 17 18 17 18 17 17 17 17 17 16 16 16 15 15 15 15 15 15 15 15 16 16
28 30 29 30 28 29 29 31 28 25 27 28 28 27 26 25 24 24 23 22 22 21 20 19 19 18 17 16 17 17 17 17 17 16 15 16 16 16 16 15 15 15 14 14 15 14 15 15 15
29 29 29 29 29 27 26 27 25 25 26 26 26 26 26 25 25 24 23 23 21 20 20 19 19 18 16 17 17 16 16 16 15 14 14 16 16 16 15 15 15 14 14 14 14 15 15 14 15
28 28 28 28 28 28 26 27 26 26 27 27 28 28 27 25 23 23 24 23 22 20 20 19 17 16 17 16 15 14 14 15 15 14 15 15 15 15 15 15 14 14 14 14 14 14 14 14 13
27 28 29 28 27 29 29 28 27 27 26 26 26 27 28 27 24 23 23 23 22 20 19 17 16 15 15 15 15 14 14 14 15 15 14 15 15 15 15 14 13 14 13 14 14 14 14 13 12
28 29 29 30 28 27 27 29 28 28 27 27 26 25 26 25 25 24 23 22 21 19 18 15 15 17 17 18 14 14 13 13 14 15 14 14 14 14 14 14 14 14 13 13 14 14 14 15 12
30 29 29 29 29 30 26 28 28 27 28 28 26 25 25 24 24 23 21 20 18 17 16 17 19 19 19 17 16 15 14 13 14 15 15 14 14 14 14 14 13 13 13 13 13 14 13 13 14
30 28 28 28 28 28 27 29 28 27 28 28 26 25 24 23 23 20 20 17 17 17 17 18 18 20 17 19 15 13 14 13 14 15 14 14 14 14 13 13 13 13 12 13 13 13 13 13 14
27 28 27 27 28 28 26 27 29 28 27 27 27 25 23 22 21 19 18 18 18 18 18 17 17 17 17 17 15 14 14 14 14 13 13 13 13 13 13 13 13 13 13 12 12 13 13 13 13
28 29 29 28 28 28 25 27 28 27 27 27 26 24 23 20 19 19 18 20 19 19 17 17 16 16 15 15 14 15 14 14 14 14 14 13 13 13 13 13 13 12 12 12 12 12 13 12 12
27 27 29 26 27 28 25 27 28 27 27 27 26 23 22 21 18 18 19 20 20 19 19 18 17 16 16 15 14 14 14 15 15 14 14 14 14 13 14 14 13 13 12 12 12 12 12 12 12
28 28 25 25 23 26 26 27 27 27 28 28 27 24 22 20 20 20 19 20 20 20 19 19 18 17 17 15 14 14 15 14 15 15 15 15 15 13 14 14 13 13 12 12 12 12 12 12 12
27 25 27 26 26 26 26 26 28 28 28 28 27 26 23 22 22 20 19 19 18 19 19 18 17 17 16 15 14 14 14 14 14 15 15 16 15 15 14 14 13 13 12 11 12 12 12 11 12
27 26 23 24 25 27 26 28 26 27 27 28 28 26 24 23 21 20 20 19 19 19 19 18 17 16 16 15 15 15 14 14 14 15 15 16 15 15 14 14 13 13 13 11 11 11 12 12 12
25 25 24 26 25 23 24 26 25 24 26 26 27 25 23 22 21 21 21 20 20 20 19 18 17 16 16 15 15 15 15 15 15 15 14 14 15 15 14 14 14 13 13 12 12 12 12 12 12